GW3558 Weather Reports


Display with metric or nautical units.
time (UTC)temp
F
wind
direction
speed
MPH
gust
MPH
rain 1hr
in
rain 24hr
in
rain mn
in
humidity
%
barometer
mb
20260906070518 43 117 0.0 0.0 0.00 0.00 0.00 79 1022.5
20260906070042 42 117 0.0 0.0 0.00 0.00 0.00 80 1022.4
20260906065519 42 117 0.0 0.0 0.00 0.00 0.00 80 1022.5
20260906065017 42 117 0.0 0.0 0.00 0.00 0.00 81 1022.3
20260906064538 42 117 0.0 0.0 0.00 0.00 0.00 81 1022.2
20260906064019 42 117 0.0 0.0 0.00 0.00 0.00 81 1022.3
20260906063518 42 117 0.0 0.0 0.00 0.00 0.00 81 1022.2
20260906063040 42 117 0.0 0.0 0.00 0.00 0.00 81 1022.3
20260906062518 42 117 0.0 0.0 0.00 0.00 0.00 80 1022.3
20260906062015 42 117 0.0 0.0 0.00 0.00 0.00 80 1022.2
20260906061541 43 117 0.0 0.0 0.00 0.00 0.00 81 1022.3
20260906061019 43 117 0.0 0.0 0.00 0.00 0.00 80 1022.3
20260906060521 43 117 0.0 0.0 0.00 0.00 0.00 79 1022.2
20260906060054 43 117 0.0 0.0 0.00 0.00 0.00 80 1022.4
20260906055519 43 117 0.0 0.0 0.00 0.00 0.00 80 1022.4
20260906055016 43 117 0.0 0.0 0.00 0.00 0.00 80 1022.3
20260906054548 43 117 0.0 0.0 0.00 0.00 0.00 79 1022.4
20260906054018 43 117 0.0 0.0 0.00 0.00 0.00 79 1022.5
20260906053518 43 117 0.0 0.0 0.00 0.00 0.00 79 1022.5
20260906053042 43 117 0.0 0.0 0.00 0.00 0.00 79 1022.6
20260906051539 44 117 0.0 0.0 0.00 0.00 0.00 78 1022.6
20260906051019 44 117 0.0 0.0 0.00 0.00 0.00 78 1022.6
20260906050519 44 117 0.0 0.0 0.00 0.00 0.00 78 1022.6
20260906050046 44 117 0.0 0.0 0.00 0.00 0.00 77 1022.5
20260906045518 44 117 0.0 0.0 0.00 0.00 0.00 77 1022.5
20260906045018 44 117 0.0 0.0 0.00 0.00 0.00 77 1022.6
20260906044556 44 117 0.0 0.0 0.00 0.00 0.00 77 1022.7
20260906044019 44 117 0.0 0.0 0.00 0.00 0.00 77 1022.6
20260906043516 44 117 0.0 0.0 0.00 0.00 0.00 76 1022.7
20260906043048 44 117 0.0 0.0 0.00 0.00 0.00 77 1022.7
20260906042520 44 117 0.0 0.0 0.00 0.00 0.00 78 1022.7
20260906042019 44 117 0.0 0.0 0.00 0.00 0.00 80 1022.7
20260906041550 44 117 0.0 0.0 0.00 0.00 0.00 78 1022.7
20260906041019 44 117 0.0 0.0 0.00 0.00 0.00 78 1022.6
20260906040518 44 117 0.0 0.0 0.00 0.00 0.00 77 1022.7
20260906040049 44 117 0.0 0.0 0.00 0.00 0.00 78 1022.5
20260906035519 44 117 0.0 0.0 0.00 0.00 0.00 78 1022.6
20260906035018 44 117 0.0 0.0 0.00 0.00 0.00 77 1022.7
20260906034553 45 117 0.0 0.0 0.00 0.00 0.00 77 1022.7
20260906034019 45 117 0.0 0.0 0.00 0.00 0.00 76 1022.8
20260906033519 45 117 0.0 0.0 0.00 0.00 0.00 75 1022.7
20260906033047 46 117 0.0 0.0 0.00 0.00 0.00 73 1022.7
20260906032517 47 116 0.0 0.0 0.00 0.00 0.00 79 1022.5
20260906032017 47 116 0.0 0.0 0.00 0.00 0.00 76 1022.4
20260906031549 48 116 0.0 0.0 0.00 0.00 0.00 72 1022.5
20260906031018 47 116 0.0 0.0 0.00 0.00 0.00 68 1022.4
20260906030518 47 116 0.0 0.0 0.00 0.00 0.00 67 1022.2
20260906030046 47 116 0.0 0.0 0.00 0.00 0.00 67 1022.3
20260906025518 47 116 0.0 0.0 0.00 0.00 0.00 68 1022.2
20260906024549 47 116 0.0 0.0 0.00 0.00 0.00 67 1022.1
20260906024019 47 116 0.0 0.0 0.00 0.00 0.00 67 1022.1
20260906023520 47 115 0.0 0.0 0.00 0.00 0.00 67 1022.0
20260906023052 47 116 0.0 0.0 0.00 0.00 0.00 66 1022.0
20260906022517 48 115 0.0 0.0 0.00 0.00 0.00 66 1021.9
20260906022023 48 116 0.0 0.0 0.00 0.00 0.00 66 1021.8
20260906021557 48 117 0.0 0.0 0.00 0.00 0.00 66 1021.8
20260906021019 48 117 0.0 0.0 0.00 0.00 0.00 64 1021.8
20260906020518 48 117 0.0 0.0 0.00 0.00 0.00 64 1021.9
20260906020047 49 117 0.0 0.0 0.00 0.00 0.00 64 1022.0
20260906014546 49 117 0.0 0.0 0.00 0.00 0.00 64 1022.0
20260906014018 49 117 0.0 0.0 0.00 0.00 0.00 64 1021.9
20260906013519 50 117 0.0 0.0 0.00 0.00 0.00 65 1021.9
20260906013044 50 117 0.0 0.0 0.00 0.00 0.00 64 1021.9
20260906012517 50 117 0.0 0.0 0.00 0.00 0.00 64 1021.8
20260906012019 50 117 0.0 0.0 0.00 0.00 0.00 64 1021.7
20260906011604 50 117 0.0 0.0 0.00 0.00 0.00 63 1021.6
20260906010517 51 117 0.0 0.0 0.00 0.00 0.00 63 1021.7
20260906010053 51 117 0.0 0.0 0.00 0.00 0.00 62 1021.7
20260906005519 52 117 0.0 0.0 0.00 0.00 0.00 62 1021.7
20260906005022 52 117 0.0 0.0 0.00 0.00 0.00 62 1021.7
20260906004548 52 117 0.0 0.0 0.00 0.00 0.00 62 1021.6
20260906004018 52 117 0.0 0.0 0.00 0.00 0.00 61 1021.6
20260906003518 52 117 0.0 0.0 0.00 0.00 0.00 61 1021.6
20260906003046 52 117 0.0 0.0 0.00 0.00 0.00 61 1021.6
20260906002020 52 117 0.0 0.0 0.00 0.00 0.00 61 1021.6
20260906001600 52 117 0.0 0.0 0.00 0.00 0.00 60 1021.6
20260906001018 52 117 0.0 0.0 0.00 0.00 0.00 60 1021.5
20260906000523 52 117 0.0 0.0 0.00 0.00 0.00 60 1021.5
20260906000049 52 117 0.0 0.0 0.00 0.00 0.00 60 1021.4
20260905235519 52 117 0.0 0.0 0.00 0.00 0.00 61 1021.4
20260905235019 52 117 0.0 0.0 0.00 0.00 0.00 63 1021.6
20260905234547 52 117 0.0 0.0 0.00 0.00 0.00 63 1021.5
20260905234019 52 117 0.0 8.0 0.00 0.00 0.00 62 1021.5
20260905233516 53 117 0.0 2.0 0.00 0.00 0.00 61 1021.7
20260905233102 54 117 0.0 0.0 0.00 0.00 0.00 61 1021.7
20260905232517 54 116 0.0 0.0 0.00 0.00 0.00 60 1021.7
20260905231551 56 116 0.0 3.0 0.00 0.00 0.00 52 1021.7
20260905231019 56 116 0.0 6.0 0.00 0.00 0.00 52 1021.6
20260905230520 56 117 0.0 0.0 0.00 0.00 0.00 51 1021.6
20260905230048 57 117 0.0 3.0 0.00 0.00 0.00 50 1021.5
20260905225518 57 116 0.0 3.0 0.00 0.00 0.00 51 1021.7
20260905225020 57 117 0.0 3.0 0.00 0.00 0.00 50 1021.6
20260905224604 57 117 0.0 4.0 0.00 0.00 0.00 50 1021.7
20260905224020 57 117 0.0 6.0 0.00 0.00 0.00 51 1021.7
20260905223518 56 118 2.0 6.0 0.00 0.00 0.00 51 1021.8
20260905223054 56 117 0.0 10.0 0.00 0.00 0.00 50 1021.7
20260905222524 55 117 0.0 6.0 0.00 0.00 0.00 55 1021.8
20260905222022 55 117 0.0 6.0 0.00 0.00 0.00 52 1021.7
20260905221542 54 117 0.0 0.0 0.00 0.00 0.00 54 1021.7
20260905221018 54 117 0.0 0.0 0.00 0.00 0.00 54 1021.7
20260905220522 54 117 0.0 0.0 0.00 0.00 0.00 53 1021.9
20260905220051 54 117 0.0 3.0 0.00 0.00 0.00 53 1021.9
20260905215518 54 117 0.0 3.0 0.00 0.00 0.00 52 1021.9
20260905215018 55 117 0.0 4.0 0.00 0.00 0.00 53 1022.0
20260905214557 55 118 0.0 4.0 0.00 0.00 0.00 52 1022.1
20260905213518 56 117 0.0 0.0 0.00 0.00 0.00 53 1022.1
20260905213052 56 117 0.0 0.0 0.00 0.00 0.00 54 1022.1
20260905212520 55 117 0.0 0.0 0.00 0.00 0.00 57 1022.0
20260905212022 54 117 0.0 0.0 0.00 0.00 0.00 59 1022.0
20260905211543 54 117 0.0 0.0 0.00 0.00 0.00 57 1022.0
20260905211019 53 116 0.0 0.0 0.00 0.00 0.00 55 1022.1
20260905210519 53 117 0.0 0.0 0.00 0.00 0.00 56 1022.2
20260905210049 53 117 0.0 0.0 0.00 0.00 0.00 58 1022.1
20260905205518 53 116 0.0 0.0 0.00 0.00 0.00 58 1022.1
20260905205021 53 117 0.0 0.0 0.00 0.00 0.00 55 1022.0
20260905204544 52 117 0.0 0.0 0.00 0.00 0.00 58 1022.0
20260905204017 52 118 0.0 0.0 0.00 0.00 0.00 60 1021.9
20260905203052 52 117 0.0 0.0 0.00 0.00 0.00 60 1021.9
20260905202518 52 117 0.0 0.0 0.00 0.00 0.00 61 1021.9
20260905202017 53 118 0.0 0.0 0.00 0.00 0.00 61 1021.8
20260905201551 53 117 0.0 0.0 0.00 0.00 0.00 61 1021.9
20260905201019 53 117 0.0 0.0 0.00 0.00 0.00 60 1021.9
20260905200517 53 117 0.0 0.0 0.00 0.00 0.00 61 1022.0
20260905200050 53 117 0.0 3.0 0.00 0.00 0.00 59 1022.0
20260905195519 53 117 0.0 0.0 0.00 0.00 0.00 59 1022.1
20260905195017 53 117 0.0 6.0 0.00 0.00 0.00 60 1022.2
20260905194548 53 118 0.0 0.0 0.00 0.00 0.00 60 1022.2
20260905194019 53 117 0.0 0.0 0.00 0.00 0.00 61 1022.2
20260905193517 53 117 0.0 0.0 0.00 0.00 0.00 60 1022.2
20260905193053 53 117 0.0 0.0 0.00 0.00 0.00 59 1022.2
20260905192020 53 117 0.0 8.0 0.00 0.00 0.00 62 1022.2
20260905191552 53 118 0.0 8.0 0.00 0.00 0.00 61 1022.1
20260905191019 52 117 0.0 0.0 0.00 0.00 0.00 64 1022.2
20260905190522 51 119 0.0 0.0 0.00 0.00 0.00 66 1022.1
20260905190105 51 117 0.0 0.0 0.00 0.00 0.00 67 1022.0
20260905185517 51 117 0.0 0.0 0.00 0.00 0.00 66 1022.2
20260905185017 51 118 0.0 0.0 0.00 0.00 0.00 64 1022.1
20260905184602 52 117 0.0 0.0 0.00 0.00 0.00 66 1022.2
20260905184018 52 117 0.0 1.0 0.00 0.00 0.00 65 1022.2
20260905183518 53 117 0.0 6.0 0.00 0.00 0.00 64 1022.5
20260905183054 54 117 0.0 6.0 0.00 0.00 0.00 62 1022.3
20260905182517 55 117 0.0 8.0 0.00 0.00 0.00 62 1022.4
20260905182019 56 118 1.0 8.0 0.00 0.00 0.00 62 1022.4
20260905181550 55 117 1.0 6.0 0.00 0.00 0.00 63 1022.4
20260905181019 54 118 0.0 9.0 0.00 0.00 0.00 64 1022.4
20260905180518 54 118 2.0 8.0 0.00 0.00 0.00 63 1022.5
20260905180057 54 118 0.0 8.0 0.00 0.00 0.00 61 1022.7
20260905175518 55 118 1.0 6.0 0.00 0.00 0.00 63 1022.5
20260905175020 55 119 0.0 8.0 0.00 0.00 0.00 63 1022.3
20260905174558 54 117 1.0 8.0 0.00 0.00 0.00 61 1022.4
20260905174019 54 117 1.0 7.0 0.00 0.00 0.00 64 1022.2
20260905173520 53 117 0.0 3.0 0.00 0.00 0.00 65 1022.3
20260905173048 53 118 0.0 0.0 0.00 0.00 0.00 65 1022.1
20260905172518 52 117 0.0 0.0 0.00 0.00 0.00 68 1022.3
20260905172017 52 117 0.0 0.0 0.00 0.00 0.00 66 1022.4
20260905171545 52 117 0.0 0.0 0.00 0.00 0.00 65 1022.2
20260905171017 52 117 0.0 0.0 0.00 0.00 0.00 65 1022.3
20260905170056 51 117 0.0 0.0 0.00 0.00 0.00 64 1022.1
20260905165017 50 117 0.0 0.0 0.00 0.00 0.00 69 1022.3
20260905164551 50 117 0.0 0.0 0.00 0.00 0.00 66 1022.4
20260905164020 50 117 0.0 0.0 0.00 0.00 0.00 67 1022.3
20260905163519 50 117 0.0 0.0 0.00 0.00 0.00 68 1022.1
20260905163101 50 117 0.0 0.0 0.00 0.00 0.00 67 1022.1
20260905161554 49 117 0.0 0.0 0.00 0.00 0.00 70 1022.1
20260905161018 49 117 0.0 0.0 0.00 0.00 0.00 69 1022.2
20260905160519 50 117 0.0 0.0 0.00 0.00 0.00 68 1022.1
20260905160054 50 117 0.0 0.0 0.00 0.00 0.00 67 1021.9
20260905155519 51 118 0.0 0.0 0.00 0.00 0.00 65 1022.0
20260905155020 52 117 0.0 0.0 0.00 0.00 0.00 65 1021.9
20260905154544 52 117 0.0 0.0 0.00 0.00 0.00 66 1021.9
20260905153056 50 117 0.0 0.0 0.00 0.00 0.00 65 1022.0
20260905152520 50 117 0.0 0.0 0.00 0.00 0.00 67 1022.0
20260905152020 50 117 0.0 0.0 0.00 0.00 0.00 66 1022.0
20260905151550 50 117 0.0 0.0 0.00 0.00 0.00 65 1021.9
20260905151018 50 117 0.0 0.0 0.00 0.00 0.00 65 1022.0
20260905150519 50 117 0.0 0.0 0.00 0.00 0.00 68 1021.9
20260905150050 49 117 0.0 0.0 0.00 0.00 0.00 68 1021.7
20260905145517 48 117 0.0 0.0 0.00 0.00 0.00 71 1021.9
20260905145018 47 116 0.0 0.0 0.00 0.00 0.00 73 1021.9
20260905144558 46 116 0.0 0.0 0.00 0.00 0.00 72 1021.9
20260905143049 46 116 0.0 0.0 0.00 0.00 0.00 75 1021.8
20260905142523 46 116 0.0 0.0 0.00 0.00 0.00 74 1021.7
20260905142019 45 116 0.0 0.0 0.00 0.00 0.00 75 1021.8
20260905141548 45 116 0.0 0.0 0.00 0.00 0.00 76 1021.8
20260905140057 44 116 0.0 0.0 0.00 0.00 0.00 78 1021.9
20260905135518 43 116 0.0 0.0 0.00 0.00 0.00 79 1021.9
20260905135018 43 116 0.0 0.0 0.00 0.00 0.00 79 1021.9
20260905134550 42 116 0.0 0.0 0.00 0.00 0.00 80 1022.0
20260905134019 42 116 0.0 0.0 0.00 0.00 0.00 80 1021.9
20260905133519 42 116 0.0 0.0 0.00 0.00 0.00 80 1021.9
20260905133048 42 116 0.0 0.0 0.00 0.00 0.00 80 1021.9
20260905132517 42 116 0.0 0.0 0.00 0.00 0.00 80 1021.9
20260905132016 42 116 0.0 0.0 0.00 0.00 0.00 80 1021.9
20260905131619 42 116 0.0 0.0 0.00 0.00 0.00 80 1021.9
20260905130055 42 116 0.0 0.0 0.00 0.00 0.00 80 1021.8
20260905125518 42 116 0.0 0.0 0.00 0.00 0.00 80 1021.8
20260905125019 42 116 0.0 0.0 0.00 0.00 0.00 80 1021.8
20260905124551 42 116 0.0 0.0 0.00 0.00 0.00 80 1021.8
20260905124017 42 116 0.0 0.0 0.00 0.00 0.00 80 1021.8
20260905123518 42 116 0.0 0.0 0.00 0.00 0.00 79 1021.8
20260905123056 42 116 0.0 0.0 0.00 0.00 0.00 79 1021.8
20260905122519 42 116 0.0 0.0 0.00 0.00 0.00 79 1021.8
20260905122017 42 116 0.0 0.0 0.00 0.00 0.00 78 1021.7
20260905121554 42 116 0.0 0.0 0.00 0.00 0.00 78 1021.7
20260905120054 42 116 0.0 0.0 0.00 0.00 0.00 76 1021.8
20260905115517 42 116 0.0 0.0 0.00 0.00 0.00 76 1021.7
20260905115019 42 116 0.0 0.0 0.00 0.00 0.00 75 1021.7
20260905114547 42 116 0.0 0.0 0.00 0.00 0.00 75 1021.7
20260905114016 42 116 0.0 0.0 0.00 0.00 0.00 75 1021.7
20260905113518 42 116 0.0 0.0 0.00 0.00 0.00 75 1021.7
20260905113044 42 116 0.0 0.0 0.00 0.00 0.00 75 1021.7
20260905111557 42 116 0.0 0.0 0.00 0.00 0.00 74 1021.6
20260905110517 42 116 0.0 0.0 0.00 0.00 0.00 74 1021.7
20260905110051 42 116 0.0 0.0 0.00 0.00 0.00 73 1021.7
20260905105518 43 116 0.0 0.0 0.00 0.00 0.00 73 1021.7
20260905105020 43 116 0.0 0.0 0.00 0.00 0.00 74 1021.6
20260905104546 43 116 0.0 0.0 0.00 0.00 0.00 74 1021.6
20260905104017 43 116 0.0 0.0 0.00 0.00 0.00 75 1021.7
20260905103525 43 116 0.0 0.0 0.00 0.00 0.00 75 1021.7
20260905103055 43 116 0.0 0.0 0.00 0.00 0.00 75 1021.6
20260905102020 42 116 0.0 0.0 0.00 0.00 0.00 75 1021.6
20260905101613 42 116 0.0 0.0 0.00 0.00 0.00 75 1021.6
20260905101020 42 116 0.0 0.0 0.00 0.00 0.00 75 1021.4
20260905095517 43 116 0.0 0.0 0.00 0.00 0.00 75 1021.4
20260905095019 43 116 0.0 0.0 0.00 0.00 0.00 74 1021.4
20260905094018 43 116 0.0 0.0 0.00 0.00 0.00 74 1021.3
20260905093516 43 116 0.0 0.0 0.00 0.00 0.00 74 1021.4
20260905092518 43 116 0.0 0.0 0.00 0.00 0.00 73 1021.4
20260905092022 43 116 0.0 0.0 0.00 0.00 0.00 73 1021.4
20260905091020 43 116 0.0 0.0 0.00 0.00 0.00 73 1021.5
20260905090519 43 116 0.0 0.0 0.00 0.00 0.00 72 1021.4
20260905090040 44 116 0.0 0.0 0.00 0.00 0.00 71 1021.3
20260905085516 44 116 0.0 0.0 0.00 0.00 0.00 71 1021.3
20260905085016 44 116 0.0 0.0 0.00 0.00 0.00 71 1021.2
20260905084557 44 116 0.0 0.0 0.00 0.00 0.00 71 1021.1
20260905084018 44 116 0.0 0.0 0.00 0.00 0.00 71 1021.2
20260905083516 44 116 0.0 0.0 0.00 0.00 0.00 71 1021.2
20260905082519 44 116 0.0 0.0 0.00 0.00 0.00 71 1021.1
20260905082017 44 116 0.0 0.0 0.00 0.00 0.00 71 1021.1
20260905081017 44 116 0.0 0.0 0.00 0.00 0.00 71 1021.0
20260905080517 44 116 0.0 0.0 0.00 0.00 0.00 71 1021.0
20260905075520 44 116 0.0 0.0 0.00 0.00 0.00 70 1020.9
20260905075015 44 116 0.0 0.0 0.00 0.00 0.00 70 1020.9
20260905074019 44 116 0.0 0.0 0.00 0.00 0.00 70 1020.8
20260905073523 44 116 0.0 0.0 0.00 0.00 0.00 70 1020.7
20260905073035 44 116 0.0 0.0 0.00 0.00 0.00 70 1020.8
20260905072520 44 116 0.0 0.0 0.00 0.00 0.00 71 1020.8
20260905072020 44 116 0.0 0.0 0.00 0.00 0.00 70 1020.8
20260905071020 45 116 0.0 0.0 0.00 0.00 0.00 70 1020.8